STARLINK-35457 (66433 NORAD) Tracking and Keplerian Element Data

This shows tracking and keplerian element data for the satellite.

Feedback or suggestion? Click here.




ElementValue
Catalog66433
NameSTARLINK-35457
Epoch Orbit729
Epoch Day354.05089223
Epoch Year2025
RAAN5.6559
Inclination43.0004
Eccentricity0.0002092
Argument of Perigee273.5466
Mean Anonmoly86.5151
Mean Motion15.40726783
Decay Rate0.0004939
L11 66433U 25259M 25354.05089223 .00049390 00000+0 11809-2 0 9998
L22 66433 43.0004 5.6559 0002092 273.5466 86.5151 15.40726783 7298



Live tracking and technical data element details for STARLINK-35457 (NORAD 66433). STARLINK-35457 can be tracked NOW for your location showing map with azimuth and elevation plus other details from your city location.







IsCatalogInMostPopularTable: catalog: 66433, numindb: 3
Update: records affected: 1



GetName: 66433 STARLINK-35457

Hit Count: updated at: Mon, 09 Feb 2026 09:22:38 GMT